Weather History for Johnstown, PA

Change the Weather History Date:

Tuesday, October 14, 2014

  Actual Average Record
Temperature  
Mean Temperature 65 °F 50 °F  
Max Temperature 72 °F 59 °F 87 °F (1969)
Min Temperature 58 °F 41 °F 22 °F (1957)
Degree Days  
Heating Degree Days 0 15  
Month to date heating degree days 147 184  
Since 1 July heating degree days 380 402  
Cooling Degree Days 0 0  
Month to date cooling degree days 0 0  
Year to date cooling degree days 341 382  
Growing Degree Days 14 (Base 50)    
Moisture  
Dew Point 60 °F    
Average Humidity 83    
Maximum Humidity 93    
Minimum Humidity 73    
Precipitation  
Precipitation 0.03 in 0.10 in 1.21 in (1893)
Month to date precipitation 1.34 1.46  
Year to date precipitation 28.44 25.75  
Sea Level Pressure  
Sea Level Pressure 29.98 in    
Wind  
Wind Speed 18 mph (SSE)    
Max Wind Speed 29 mph    
Max Gust Speed 43 mph    
Visibility 10 miles    
Events Rain    
T = Trace of Precipitation, MM = Missing Value Source: NWS Daily Summary

Daily Weather History Graph

Daily Weather History Graph

Search for Another Location

Airport:

Trip Planner

Search our weather history database for the weather conditions in past years. The results will help you decide how hot, cold, wet, or windy it might be!

Date:

Astronomy

Oct. 14, 2014 Rise Set
Actual Time 7:25 AM EDT 6:36 PM EDT
Civil Twilight 6:57 AM EDT 7:04 PM EDT
Nautical Twilight 6:26 AM EDT 7:35 PM EDT
Astronomical Twilight 5:54 AM EDT 8:07 PM EDT
Moon 11:40 PM EDT (10/14) 1:24 PM EDT (10/14)
Length of Visible Light 12h 06m
Length of Day
11h 11m
Waning Gibbous, 61% of the Moon is Illuminated
Oct 14
Waning Gibbous
Oct 15
Last Quarter
Oct 23
New
Oct 30
First Quarter
Nov 6
Full

Hourly Weather History & Observations

Time (EDT) Temp. Dew Point Humidity Pressure Visibility Wind Dir Wind Speed Gust Speed Precip Events Conditions
12:54 AM 57.9 °F 55.9 °F 93% 30.13 in 10.0 mi South 9.2 mph - N/A   Partly Cloudy
1:19 AM 59.0 °F 55.9 °F 90% 30.13 in 10.0 mi SSE 9.2 mph - N/A   Mostly Cloudy
1:26 AM 59.0 °F 55.9 °F 90% 30.13 in 10.0 mi South 9.2 mph - N/A   Mostly Cloudy
1:54 AM 60.1 °F 57.0 °F 90% 30.11 in 10.0 mi South 12.7 mph - N/A   Overcast
2:16 AM 60.1 °F 57.0 °F 90% 30.12 in 10.0 mi South 15.0 mph - N/A   Overcast
2:27 AM 61.0 °F 57.0 °F 87% 30.11 in 10.0 mi South 13.8 mph - N/A   Overcast
2:54 AM 61.0 °F 57.0 °F 87% 30.08 in 10.0 mi SSE 13.8 mph - N/A   Overcast
3:54 AM 61.0 °F 57.9 °F 90% 30.06 in 10.0 mi SSE 16.1 mph - N/A   Overcast
4:12 AM 61.0 °F 57.9 °F 90% 30.08 in 10.0 mi SSE 13.8 mph 27.6 mph N/A   Overcast
4:54 AM 61.0 °F 57.9 °F 90% 30.05 in 7.0 mi SSE 13.8 mph 20.7 mph N/A   Overcast
5:54 AM 62.1 °F 59.0 °F 90% 30.05 in 10.0 mi SSE 15.0 mph 21.9 mph N/A   Overcast
6:44 AM 63.0 °F 59.0 °F 87% 30.06 in 10.0 mi SSE 9.2 mph 20.7 mph N/A   Overcast
6:54 AM 63.0 °F 59.0 °F 87% 30.04 in 10.0 mi South 10.4 mph - N/A   Overcast
7:39 AM 64.0 °F 59.0 °F 84% 30.05 in 10.0 mi South 18.4 mph - N/A   Overcast
7:54 AM 64.0 °F 59.0 °F 84% 30.03 in 10.0 mi SSE 20.7 mph 25.3 mph N/A   Overcast
8:54 AM 64.9 °F 59.0 °F 81% 30.03 in 10.0 mi SSE 18.4 mph 23.0 mph N/A   Overcast
9:54 AM 66.9 °F 59.0 °F 76% 30.01 in 10.0 mi SSE 24.2 mph 34.5 mph N/A   Mostly Cloudy
10:54 AM 66.0 °F 60.1 °F 81% 30.02 in 10.0 mi South 24.2 mph 34.5 mph N/A   Overcast
11:54 AM 69.1 °F 60.1 °F 73% 29.99 in 10.0 mi SSE 20.7 mph 33.4 mph N/A   Overcast
12:54 PM 70.0 °F 61.0 °F 73% 29.98 in 10.0 mi SSE 16.1 mph 26.5 mph N/A   Overcast
1:06 PM 66.9 °F 62.1 °F 84% 30.00 in 4.0 mi SSE 16.1 mph 28.8 mph 0.00 in Rain Light Rain
1:21 PM 66.0 °F 63.0 °F 90% 29.99 in 10.0 mi SSE 13.8 mph 23.0 mph 0.00 in   Overcast
1:54 PM 66.9 °F 63.0 °F 87% 29.95 in 7.0 mi SSE 18.4 mph 25.3 mph 0.00 in Rain Light Rain
2:18 PM 66.9 °F 62.1 °F 84% 29.97 in 9.0 mi SSE 17.3 mph 29.9 mph 0.00 in Rain Light Rain
2:54 PM 68.0 °F 63.0 °F 84% 29.94 in 9.0 mi SSE 21.9 mph 32.2 mph 0.00 in Rain Light Rain
3:43 PM 68.0 °F 61.0 °F 78% 29.94 in 10.0 mi SSE 23.0 mph 32.2 mph 0.00 in   Scattered Clouds
3:54 PM 68.0 °F 61.0 °F 78% 29.91 in 10.0 mi SE 17.3 mph 34.5 mph 0.00 in   Partly Cloudy
4:24 PM 68.0 °F 61.0 °F 78% 29.94 in 10.0 mi SSE 21.9 mph 32.2 mph N/A   Mostly Cloudy
4:54 PM 66.9 °F 61.0 °F 81% 29.92 in 10.0 mi South 20.7 mph 32.2 mph N/A   Overcast
5:54 PM 68.0 °F 60.1 °F 76% 29.89 in 10.0 mi SSE 19.6 mph 32.2 mph N/A   Overcast
6:14 PM 68.0 °F 60.1 °F 76% 29.92 in 10.0 mi SSE 24.2 mph 42.6 mph N/A   Mostly Cloudy
6:54 PM 66.9 °F 61.0 °F 81% 29.87 in 10.0 mi SSE 23.0 mph 35.7 mph N/A   Mostly Cloudy
7:54 PM 66.9 °F 61.0 °F 81% 29.88 in 10.0 mi SE 13.8 mph 27.6 mph N/A   Overcast
8:19 PM 66.9 °F 61.0 °F 81% 29.90 in 10.0 mi SE 17.3 mph 34.5 mph N/A   Overcast
8:54 PM 66.9 °F 61.0 °F 81% 29.88 in 10.0 mi SSE 18.4 mph 29.9 mph N/A   Overcast
9:07 PM 66.9 °F 62.1 °F 84% 29.91 in 10.0 mi SSE 20.7 mph 29.9 mph 0.01 in Rain Light Rain
9:16 PM 66.9 °F 61.0 °F 81% 29.91 in 10.0 mi SSE 24.2 mph 28.8 mph 0.01 in   Overcast
9:54 PM 66.9 °F 61.0 °F 81% 29.86 in 10.0 mi SSE 18.4 mph 35.7 mph 0.01 in   Overcast
10:16 PM 66.9 °F 61.0 °F 81% 29.88 in 10.0 mi SE 19.6 mph 29.9 mph N/A   Overcast
10:30 PM 66.9 °F 61.0 °F 81% 29.89 in 10.0 mi SE 16.1 mph 27.6 mph N/A   Overcast
10:54 PM 66.9 °F 62.1 °F 84% 29.86 in 10.0 mi SSE 19.6 mph 29.9 mph 0.00 in Rain Light Rain
11:17 PM 66.9 °F 61.0 °F 81% 29.87 in 10.0 mi SSE 24.2 mph 33.4 mph 0.00 in Rain Light Rain
11:28 PM 66.0 °F 61.0 °F 84% 29.87 in 10.0 mi SSE 20.7 mph 29.9 mph 0.00 in Rain Light Rain
11:37 PM 66.0 °F 61.0 °F 84% 29.87 in 10.0 mi SE 20.7 mph 35.7 mph 0.00 in Rain Light Rain
11:54 PM 66.0 °F 62.1 °F 87% 29.83 in 10.0 mi SE 19.6 mph 31.1 mph 0.01 in Rain Light Rain